Location: Dürabuch
(48.2640°N, 11.2185°E)
Time: 22:51:35
(UTC+00:00)

Cosmos 1703 - Pass Details

Date: 23 May 2024
Orbit: 486 x 499 km, 82.5° (Epoch: 14 June)

Event Time Altitude Azimuth Distance (km) Brightness Sun altitude
Exits shadow 02:01:14 15° 197° (SSW) 1,401 4.8 -11.4°
Maximum altitude 02:04:13 71° 281° (W) 536 3.1 -11.1°
Drops below altitude 10° 02:07:57 10° 5° (N) 1,713 6.7 -10.7°
Sets 02:10:05 0° 8° (N) 2,599 7.8 -10.4°
